Terminal Aerodrome Forecast
Issued by NWS Milwaukee/Sullivan, WI

Home | Current Version | Previous Version | Text Only | Print | Product List | Glossary On
Versions: 1 2 3 4 5 6 7 8 9 10 11 12 13 14 15 16 17 18 19 20 21 22 23 24 25 26 27 28 29 30 31
000
FTUS43 KMKX 180523
TAFMKE
TAF
KMKE 180523Z 1806/1912 25014G26KT P6SM SKC WS020/27050KT
     FM180900 25011G22KT P6SM SKC WS020/28040KT
     FM181000 25011G21KT P6SM SCT250
     FM190400 24012KT P6SM SKC=

USA.gov is the U.S. government's official web portal to all federal, state and local government web resources and services.